Weather History for Monett, MO

Change the Weather History Date:

Sunday, January 27, 2013

  Actual Average (KJLN) Record (KJLN)
Temperature  
Mean Temperature 50 °F 36 °F  
Max Temperature 59 °F 46 °F 70 °F (1970)
Min Temperature 42 °F 25 °F -5 °F (1963)
Degree Days  
Heating Degree Days 14 29  
Month to date heating degree days 809  
Since 1 July heating degree days 2426  
Cooling Degree Days 0 0  
Month to date cooling degree days 0  
Year to date cooling degree days 0  
Moisture  
Dew Point 45 °F    
Average Humidity 78    
Maximum Humidity 88    
Minimum Humidity 49    
Precipitation  
Precipitation 0.00 in 0.06 in 0.70 in (1968)
Month to date precipitation 1.76  
Year to date precipitation 1.76  
Sea Level Pressure  
Sea Level Pressure 29.98 in    
Wind  
Wind Speed 15 mph (SSE)    
Max Wind Speed 26 mph    
Max Gust Speed 38 mph    
Visibility 10 miles    
Events Rain    
T = Trace of Precipitation, MM = Missing Value Source: NWS Daily Summary

Daily Weather History Graph

Daily Weather History Graph

Search for Another Location

Airport:

Trip Planner

Search our weather history database for the weather conditions in past years. The results will help you decide how hot, cold, wet, or windy it might be!

Date:

Astronomy

Jan. 27, 2013 Rise Set
Actual Time 7:21 AM CST 5:36 PM CST
Civil Twilight 6:54 AM CST 6:03 PM CST
Nautical Twilight 6:23 AM CST 6:35 PM CST
Astronomical Twilight 5:52 AM CST 7:05 PM CST
Moon 6:28 PM CST (1/27) 7:17 AM CST (1/27)
Length of Visible Light 11h 09m
Length of Day
10h 14m
Full, 100% of the Moon is Illuminated
Jan 27
Full
Feb 3
Last Quarter
Feb 10
New
Feb 17
First Quarter
Feb 25
Full

Hourly Weather History & Observations

Time (CST) Temp. Windchill Dew Point Humidity Pressure Visibility Wind Dir Wind Speed Gust Speed Precip Events Conditions
12:15 AM 44.6 °F 38.4 °F 26.6 °F 49% 30.11 in 10.0 mi SE 12.7 mph 17.3 mph N/A   Overcast
12:35 AM 44.6 °F 39.7 °F 26.6 °F 49% 30.11 in 10.0 mi SE 9.2 mph - N/A   Overcast
12:55 AM 44.6 °F 38.8 °F 26.6 °F 49% 30.11 in 10.0 mi SE 11.5 mph - N/A   Light Drizzle
1:15 AM 42.8 °F 35.8 °F 30.2 °F 61% 30.09 in 10.0 mi SE 13.8 mph - N/A   Light Drizzle
1:35 AM 42.8 °F 36.6 °F 32.0 °F 66% 30.10 in 10.0 mi SE 11.5 mph - N/A Rain Light Rain
1:55 AM 42.8 °F 36.6 °F 32.0 °F 66% 30.11 in 10.0 mi SE 11.5 mph - N/A   Light Drizzle
2:15 AM 42.8 °F 36.6 °F 32.0 °F 66% 30.12 in 10.0 mi SSE 11.5 mph - N/A   Overcast
2:35 AM 42.8 °F 37.5 °F 33.8 °F 70% 30.12 in 10.0 mi SE 9.2 mph - N/A   Overcast
2:55 AM 42.8 °F 36.6 °F 33.8 °F 70% 30.09 in 10.0 mi SE 11.5 mph 16.1 mph N/A   Overcast
3:15 AM 42.8 °F 36.2 °F 33.8 °F 70% 30.08 in 10.0 mi ESE 12.7 mph - N/A   Drizzle
3:35 AM 42.8 °F 35.1 °F 33.8 °F 70% 30.06 in 10.0 mi SE 16.1 mph - N/A   Light Drizzle
3:55 AM 42.8 °F 35.4 °F 35.6 °F 76% 30.04 in 10.0 mi SE 15.0 mph 19.6 mph N/A Rain Light Rain
4:15 AM 42.8 °F 35.4 °F 33.8 °F 70% 30.03 in 10.0 mi SE 15.0 mph 21.9 mph N/A   Overcast
4:35 AM 42.8 °F 35.4 °F 35.6 °F 76% 30.04 in 10.0 mi SE 15.0 mph 23.0 mph N/A   Overcast
4:55 AM 42.8 °F 36.2 °F 35.6 °F 76% 30.04 in 10.0 mi SE 12.7 mph 18.4 mph N/A   Overcast
5:15 AM 42.8 °F 35.8 °F 35.6 °F 76% 30.04 in 10.0 mi SE 13.8 mph 17.3 mph N/A   Overcast
5:35 AM 42.8 °F 36.2 °F 35.6 °F 76% 30.03 in 10.0 mi SE 12.7 mph - N/A   Overcast
5:55 AM 44.6 °F 37.8 °F 35.6 °F 71% 30.03 in 10.0 mi SE 15.0 mph 18.4 mph N/A   Overcast
6:15 AM 44.6 °F 37.8 °F 37.4 °F 76% 30.03 in 10.0 mi SE 15.0 mph 18.4 mph N/A   Overcast
6:35 AM 44.6 °F 38.1 °F 37.4 °F 76% 30.03 in 10.0 mi SE 13.8 mph - N/A   Overcast
6:55 AM 44.6 °F 38.1 °F 37.4 °F 76% 30.04 in 10.0 mi SE 13.8 mph - N/A   Overcast
7:15 AM 44.6 °F 38.1 °F 37.4 °F 76% 30.04 in 10.0 mi SE 13.8 mph - N/A Rain Light Rain
7:55 AM 44.6 °F 38.1 °F 39.2 °F 81% 30.04 in 10.0 mi SE 13.8 mph - N/A   Overcast
8:15 AM 46.4 °F 40.7 °F 41.0 °F 81% 30.03 in 10.0 mi SE 12.7 mph - N/A   Overcast
8:35 AM 46.4 °F 40.7 °F 42.8 °F 87% 30.04 in 10.0 mi SSE 12.7 mph 19.6 mph N/A   Overcast
8:55 AM 48.2 °F - 44.6 °F 87% 30.03 in 10.0 mi SSE 11.5 mph - N/A   Overcast
9:15 AM 51.8 °F - 48.2 °F 88% 30.03 in 10.0 mi SSE 12.7 mph - N/A   Overcast
9:35 AM 50.0 °F - 44.6 °F 82% 30.04 in 10.0 mi SSE 12.7 mph 18.4 mph N/A   Overcast
9:55 AM 50.0 °F - 44.6 °F 82% 30.03 in 10.0 mi SSE 12.7 mph - N/A   Overcast
10:15 AM 51.8 °F - 46.4 °F 82% 30.04 in 10.0 mi SSE 12.7 mph - N/A   Mostly Cloudy
10:35 AM 53.6 °F - 46.4 °F 77% 30.03 in 10.0 mi South 17.3 mph 20.7 mph N/A   Scattered Clouds
10:55 AM 55.4 °F - 50.0 °F 82% 30.02 in 10.0 mi South 20.7 mph 29.9 mph N/A   Mostly Cloudy
11:15 AM 59.0 °F - 50.0 °F 72% 30.01 in 10.0 mi South 19.6 mph 29.9 mph N/A   Mostly Cloudy
11:35 AM 55.4 °F - 50.0 °F 82% 30.01 in 10.0 mi South 19.6 mph 32.2 mph N/A   Overcast
11:55 AM 57.2 °F - 50.0 °F 77% 30.00 in 10.0 mi South 26.5 mph 38.0 mph N/A   Overcast
12:15 PM 55.4 °F - 50.0 °F 82% 29.97 in 10.0 mi South 23.0 mph 29.9 mph N/A   Light Drizzle
12:35 PM 55.4 °F - 51.8 °F 88% 29.96 in 10.0 mi South 20.7 mph 28.8 mph N/A Rain Light Rain
12:55 PM 55.4 °F - 51.8 °F 88% 29.96 in 10.0 mi South 20.7 mph 25.3 mph N/A Rain Light Rain
1:15 PM 55.4 °F - 51.8 °F 88% 29.94 in 10.0 mi South 13.8 mph 23.0 mph N/A   Light Drizzle
1:35 PM 55.4 °F - 51.8 °F 88% 29.93 in 10.0 mi South 18.4 mph 21.9 mph N/A   Light Drizzle
1:55 PM 57.2 °F - 51.8 °F 82% 29.93 in 10.0 mi South 15.0 mph 21.9 mph N/A   Overcast
2:15 PM 59.0 °F - 51.8 °F 77% 29.93 in 10.0 mi South 18.4 mph 24.2 mph N/A   Overcast
2:35 PM 59.0 °F - 51.8 °F 77% 29.93 in 10.0 mi South 19.6 mph 32.2 mph N/A   Mostly Cloudy
2:55 PM 59.0 °F - 51.8 °F 77% 29.91 in 10.0 mi South 18.4 mph 28.8 mph N/A   Mostly Cloudy
3:15 PM 59.0 °F - 51.8 °F 77% 29.91 in 10.0 mi South 18.4 mph 27.6 mph N/A   Scattered Clouds
3:35 PM 59.0 °F - 51.8 °F 77% 29.90 in 10.0 mi South 23.0 mph 28.8 mph N/A   Scattered Clouds
3:55 PM 59.0 °F - 50.0 °F 72% 29.90 in 10.0 mi South 16.1 mph 29.9 mph N/A   Scattered Clouds
4:15 PM 59.0 °F - 50.0 °F 72% 29.90 in 10.0 mi South 20.7 mph 28.8 mph N/A   Scattered Clouds
4:35 PM 59.0 °F - 50.0 °F 72% 29.90 in 10.0 mi South 20.7 mph 29.9 mph N/A   Mostly Cloudy
4:55 PM 57.2 °F - 51.8 °F 82% 29.90 in 10.0 mi South 20.7 mph 25.3 mph N/A   Overcast
5:15 PM 57.2 °F - 51.8 °F 82% 29.90 in 10.0 mi SSW 17.3 mph 25.3 mph N/A   Overcast
5:35 PM 57.2 °F - 51.8 °F 82% 29.91 in 10.0 mi South 23.0 mph 29.9 mph N/A   Overcast
5:55 PM 57.2 °F - 51.8 °F 82% 29.91 in 10.0 mi South 21.9 mph 27.6 mph N/A   Overcast
6:15 PM 57.2 °F - 51.8 °F 82% 29.91 in 10.0 mi South 25.3 mph 29.9 mph N/A   Overcast
6:35 PM 57.2 °F - 51.8 °F 82% 29.92 in 10.0 mi South 17.3 mph 24.2 mph N/A   Overcast
6:55 PM 57.2 °F - 51.8 °F 82% 29.91 in 10.0 mi South 18.4 mph 26.5 mph N/A   Overcast
7:15 PM 57.2 °F - 51.8 °F 82% 29.91 in 10.0 mi South 20.7 mph 28.8 mph N/A   Overcast
7:35 PM 57.2 °F - 51.8 °F 82% 29.91 in 10.0 mi South 20.7 mph 28.8 mph N/A   Overcast
7:55 PM 59.0 °F - 51.8 °F 77% 29.92 in 10.0 mi South 19.6 mph 26.5 mph N/A   Overcast
8:15 PM 59.0 °F - 53.6 °F 82% 29.92 in 10.0 mi South 18.4 mph 29.9 mph N/A   Overcast
8:35 PM 59.0 °F - 51.8 °F 77% 29.92 in 10.0 mi South 18.4 mph 27.6 mph N/A   Overcast
8:55 PM 59.0 °F - 53.6 °F 82% 29.91 in 10.0 mi South 17.3 mph 27.6 mph N/A   Overcast
9:15 PM 57.2 °F - 53.6 °F 88% 29.90 in 10.0 mi South 19.6 mph 27.6 mph N/A   Mostly Cloudy
9:35 PM 57.2 °F - 53.6 °F 88% 29.90 in 10.0 mi South 20.7 mph 28.8 mph N/A   Mostly Cloudy
9:55 PM 57.2 °F - 53.6 °F 88% 29.90 in 10.0 mi South 13.8 mph 23.0 mph N/A   Mostly Cloudy
10:15 PM 57.2 °F - 53.6 °F 88% 29.91 in 10.0 mi South 12.7 mph 23.0 mph N/A   Mostly Cloudy
10:35 PM 57.2 °F - 53.6 °F 88% 29.91 in 10.0 mi South 9.2 mph 17.3 mph N/A   Mostly Cloudy
10:55 PM 59.0 °F - 53.6 °F 82% 29.93 in 10.0 mi SSW 12.7 mph 18.4 mph N/A   Overcast
11:15 PM 59.0 °F - 53.6 °F 82% 29.92 in 10.0 mi South 12.7 mph 18.4 mph N/A   Overcast
11:35 PM 59.0 °F - 53.6 °F 82% 29.93 in 10.0 mi South 12.7 mph - N/A   Overcast
11:55 PM 59.0 °F - 53.6 °F 82% 29.92 in 10.0 mi South 15.0 mph 20.7 mph N/A   Overcast